Regional Weather Roundup
Issued by NWS

Home | Current Version | Previous Version | Text Only | Print | Product List | Glossary Off
Versions: 1 2 3 4 5 6 7 8 9 10 11 12 13 14 15 16 17 18 19 20 21 22 23 24 25 26 27 28 29 30 31 32 33 34 35 36 37 38 39 40 41 42 43 44 45 46 47 48 49 50

194
ASUS45 KCYS 040110
RWRWY

WYOMING REGIONAL WEATHER ROUNDUP
NATIONAL WEATHER SERVICE CHEYENNE WY
700 PM MDT TUE MAY 03 2016

NOTE:  "FAIR" INDICATES FEW OR NO CLOUDS BELOW 12,000 FEET
WITH NO SIGNIFICANT WEATHER AND/OR OBSTRUCTIONS TO VISIBILITY.

WYZ001-040200-
YELLOWSTONE NATIONAL PARK

CITY           SKY/WX    TMP DP  RH WIND       PRES   REMARKS
LK YELLOWSTONE   N/A     53  22  29 CALM      30.31F
W YELLOWSTONE  NOT AVBL

$$
WYZ002>013-054>058-071-098>099-040200-
NORTHERN WYOMING

CITY           SKY/WX    TMP DP  RH WIND       PRES   REMARKS
JACKSON        FAIR      66  18  15 W6        30.22F
CODY           FAIR      70  28  21 E6        30.14S
GREYBULL       FAIR      77  15   9 N6        30.08F
WORLAND        FAIR      72  29  20 E3        30.11F
SHERIDAN       FAIR      70  39  32 S3        30.13S
BUFFALO        FAIR      67  35  30 N7        30.19S
GILLETTE       FAIR      68  38  33 N8        30.14F
HULETT         FAIR      68  34  28 N7        30.15S
NEWCASTLE      FAIR      70  30  23 N13       30.12S

$$
WYZ014>020-022>026-101>103-040200-
CENTRAL WYOMING

CITY           SKY/WX    TMP DP  RH WIND       PRES   REMARKS
BIG PINEY      FAIR      66  21  18 SW8       30.24F
PINEDALE       MOCLDY    61  23  23 CALM      30.25S
DUBOIS         CLOUDY    59  25  27 SE14      30.24S
LANDER         FAIR      64  38  38 S6        30.17F
RIVERTON       FAIR      67  30  25 E6        30.19F
CASPER         FAIR      65  32  29 N6        30.19F
DOUGLAS        FAIR      67  36  31 N8        30.18S

$$
WYZ021-027>030-104>119-040200-
SOUTHERN WYOMING

CITY           SKY/WX    TMP DP  RH WIND       PRES   REMARKS
EVANSTON       FAIR      65  18  16 E7        30.24F
KEMMERER         N/A     63  18  17 SE7       30.26S
FORT BRIDGER   CLEAR     64  16  15 E6        30.28F
ROCK SPRINGS   FAIR      62  20  19 S6        30.25F
DIXON          FAIR      65  26  22 N6        30.26S
RAWLINS        FAIR      63  25  23 NW5       30.25F
SARATOGA       FAIR      61  27  27 N3        30.27S
LARAMIE        FAIR      57  30  35 N8        30.27S
CHEYENNE       FAIR      61  31  32 N13       30.22S
TORRINGTON     FAIR      70  34  26 NW10      30.11S
PINE BLUFFS    FAIR      63  36  36 N12       30.18S

$$




USA.gov is the U.S. government's official web portal to all federal, state and local government web resources and services.